Weather History for KCLK - January, 2013

Change the Weather History Date:

Wednesday, January 30, 2013

  Actual Average (KCSM) Record (KCSM)
Temperature  
Mean Temperature 38 °F -  
Max Temperature 44 °F 48 °F 63 °F (2009)
Min Temperature 32 °F 28 °F 12 °F (2004)
Degree Days  
Heating Degree Days 27    
Moisture  
Dew Point 20 °F    
Average Humidity 53    
Maximum Humidity 81    
Minimum Humidity 23    
Precipitation  
Precipitation 0.00 in - - ()
Sea Level Pressure  
Sea Level Pressure 29.95 in    
Wind  
Wind Speed 17 mph (WNW)    
Max Wind Speed 24 mph    
Max Gust Speed 31 mph    
Visibility 10 miles    
Events      
Averages and records for this station are not official NWS values.
T = Trace of Precipitation, MM = Missing Value Source: NWS Daily Summary

Daily Weather History Graph

Daily Weather History Graph

Search for Another Location

Airport or City:

Trip Planner

Search our weather history database for the weather conditions in past years. The results will help you decide how hot, cold, wet, or windy it might be!

Date:

Astronomy

Jan. 30, 2013 Rise Set
Actual Time 7:36 AM CST 6:01 PM CST
Civil Twilight 7:09 AM CST 6:28 PM CST
Nautical Twilight 6:39 AM CST 6:59 PM CST
Astronomical Twilight 6:09 AM CST 7:29 PM CST
Moon 9:51 PM CST (1/30) 9:14 AM CST (1/30)
Length of Visible Light 11h 18m
Length of Day
10h 25m
Waning Gibbous, 87% of the Moon is Illuminated
Jan 30
Waning Gibbous
Feb 3
Last Quarter
Feb 10
New
Feb 17
First Quarter
Feb 25
Full

Hourly Weather History & Observations

Time (CST) Temp. Windchill Dew Point Humidity Pressure Visibility Wind Dir Wind Speed Gust Speed Precip Events Conditions
12:15 AM 35.6 °F 25.2 °F 30.2 °F 81% 29.71 in 10.0 mi NNW 18.4 mph - N/A   Mostly Cloudy
12:35 AM 35.6 °F 25.2 °F 30.2 °F 81% 29.72 in 10.0 mi NW 18.4 mph 24.2 mph N/A   Overcast
12:55 AM 35.6 °F 24.8 °F 28.4 °F 75% 29.73 in 10.0 mi NNW 19.6 mph 24.2 mph N/A   Mostly Cloudy
1:35 AM 35.6 °F 24.0 °F 28.4 °F 75% 29.74 in 10.0 mi NNW 23.0 mph 29.9 mph N/A   Overcast
1:55 AM 35.6 °F 23.7 °F 28.4 °F 75% 29.75 in 10.0 mi NNW 24.2 mph 29.9 mph N/A   Overcast
2:15 AM 35.6 °F 24.8 °F 26.6 °F 70% 29.76 in 10.0 mi NNW 19.6 mph 26.5 mph N/A   Overcast
2:35 AM 35.6 °F 25.5 °F 28.4 °F 75% 29.77 in 10.0 mi NNW 17.3 mph 26.5 mph N/A   Overcast
2:55 AM 35.6 °F 24.5 °F 28.4 °F 75% 29.78 in 10.0 mi NNW 20.7 mph 26.5 mph N/A   Overcast
3:15 AM 35.6 °F 24.8 °F 26.6 °F 70% 29.79 in 10.0 mi NNW 19.6 mph 27.6 mph N/A   Overcast
3:35 AM 35.6 °F 24.0 °F 26.6 °F 70% 29.81 in 10.0 mi NNW 23.0 mph 31.1 mph N/A   Overcast
3:55 AM 35.6 °F 24.8 °F 26.6 °F 70% 29.81 in 10.0 mi NNW 19.6 mph 24.2 mph N/A   Overcast
4:15 AM 33.8 °F 23.5 °F 26.6 °F 75% 29.82 in 10.0 mi NNW 16.1 mph - N/A   Mostly Cloudy
4:35 AM 33.8 °F 23.9 °F 26.6 °F 75% 29.83 in 10.0 mi NNW 15.0 mph 23.0 mph N/A   Mostly Cloudy
5:15 AM 35.6 °F 25.2 °F 26.6 °F 70% 29.84 in 10.0 mi NNW 18.4 mph 31.1 mph N/A   Overcast
5:35 AM 33.8 °F 22.2 °F 26.6 °F 75% 29.85 in 10.0 mi NNW 20.7 mph 26.5 mph N/A   Mostly Cloudy
5:55 AM 33.8 °F 22.8 °F 28.4 °F 81% 29.86 in 10.0 mi NNW 18.4 mph 21.9 mph N/A   Overcast
6:15 AM 35.6 °F 25.2 °F 26.6 °F 70% 29.87 in 10.0 mi NNW 18.4 mph 25.3 mph N/A   Overcast
6:35 AM 35.6 °F 24.5 °F 26.6 °F 70% 29.88 in 10.0 mi NW 20.7 mph 27.6 mph N/A   Overcast
6:55 AM 33.8 °F 22.5 °F 26.6 °F 75% 29.90 in 10.0 mi NW 19.6 mph 25.3 mph N/A   Overcast
7:15 AM 32.0 °F 20.5 °F 24.8 °F 75% 29.92 in 10.0 mi NW 18.4 mph 24.2 mph N/A   Scattered Clouds
7:35 AM 32.0 °F 20.8 °F 23.0 °F 69% 29.94 in 10.0 mi NW 17.3 mph 21.9 mph N/A   Clear
7:55 AM 32.0 °F 20.5 °F 23.0 °F 69% 29.95 in 10.0 mi NW 18.4 mph - N/A   Clear
8:15 AM 32.0 °F 20.1 °F 23.0 °F 69% 29.97 in 10.0 mi NW 19.6 mph 24.2 mph N/A   Clear
8:35 AM 32.0 °F 21.2 °F 23.0 °F 69% 29.98 in 10.0 mi NW 16.1 mph 21.9 mph N/A   Clear
8:55 AM 32.0 °F 20.8 °F 23.0 °F 69% 29.99 in 10.0 mi NW 17.3 mph 23.0 mph N/A   Clear
9:15 AM 32.0 °F 20.1 °F 23.0 °F 69% 30.00 in 10.0 mi NW 19.6 mph 23.0 mph N/A   Clear
9:35 AM 33.8 °F 22.2 °F 23.0 °F 65% 30.00 in 10.0 mi NNW 20.7 mph 26.5 mph N/A   Clear
9:55 AM 33.8 °F 23.2 °F 23.0 °F 65% 30.01 in 10.0 mi NNW 17.3 mph 26.5 mph N/A   Clear
10:15 AM 35.6 °F 24.8 °F 23.0 °F 60% 30.02 in 10.0 mi NNW 19.6 mph 24.2 mph N/A   Clear
10:35 AM 35.6 °F 25.2 °F 23.0 °F 60% 30.03 in 10.0 mi NNW 18.4 mph 27.6 mph N/A   Clear
10:55 AM 37.4 °F 27.8 °F 23.0 °F 56% 30.03 in 10.0 mi NW 17.3 mph - N/A   Clear
11:15 AM 37.4 °F 27.2 °F 21.2 °F 52% 30.03 in 10.0 mi NNW 19.6 mph 24.2 mph N/A   Scattered Clouds
11:35 AM 37.4 °F 27.8 °F 21.2 °F 52% 30.03 in 10.0 mi NW 17.3 mph 24.2 mph N/A   Scattered Clouds
11:55 AM 39.2 °F 29.8 °F 21.2 °F 49% 30.03 in 10.0 mi NW 18.4 mph 26.5 mph N/A   Clear
12:15 PM 39.2 °F 30.5 °F 21.2 °F 49% 30.03 in 10.0 mi WNW 16.1 mph 29.9 mph N/A   Scattered Clouds
12:35 PM 41.0 °F 32.5 °F 21.2 °F 45% 30.02 in 10.0 mi NW 17.3 mph 26.5 mph N/A   Clear
12:55 PM 41.0 °F 31.4 °F 19.4 °F 42% 30.02 in 10.0 mi WNW 21.9 mph 27.6 mph N/A   Clear
1:15 PM 41.0 °F 32.2 °F 19.4 °F 42% 30.01 in 10.0 mi WNW 18.4 mph 28.8 mph N/A   Clear
1:35 PM 42.8 °F 34.3 °F 19.4 °F 39% 30.01 in 10.0 mi WNW 19.6 mph 25.3 mph N/A   Clear
1:55 PM 42.8 °F 35.1 °F 17.6 °F 36% 30.00 in 10.0 mi WNW 16.1 mph 27.6 mph N/A   Clear
2:15 PM 42.8 °F 34.3 °F 14.0 °F 31% 30.00 in 10.0 mi WNW 19.6 mph 31.1 mph N/A   Clear
2:35 PM 44.6 °F 36.9 °F 15.8 °F 31% 29.99 in 10.0 mi NW 18.4 mph 26.5 mph N/A   Clear
2:55 PM 44.6 °F 36.4 °F 12.2 °F 27% 29.99 in 10.0 mi WNW 20.7 mph 25.3 mph N/A   Clear
3:15 PM 44.6 °F 37.4 °F 10.4 °F 25% 30.00 in 10.0 mi West 16.1 mph 23.0 mph N/A   Clear
3:35 PM 44.6 °F 36.4 °F 10.4 °F 25% 30.00 in 10.0 mi WNW 20.7 mph 28.8 mph N/A   Clear
3:55 PM 44.6 °F 36.4 °F 10.4 °F 25% 29.99 in 10.0 mi West 20.7 mph 29.9 mph N/A   Clear
4:15 PM 44.6 °F 37.2 °F 8.6 °F 23% 29.99 in 10.0 mi West 17.3 mph 24.2 mph N/A   Clear
4:35 PM 44.6 °F 37.2 °F 10.4 °F 25% 29.99 in 10.0 mi WNW 17.3 mph 21.9 mph N/A   Clear
4:55 PM 44.6 °F 37.4 °F 8.6 °F 23% 29.99 in 10.0 mi WNW 16.1 mph 24.2 mph N/A   Clear
5:15 PM 44.6 °F 37.4 °F 10.4 °F 25% 30.00 in 10.0 mi West 16.1 mph 20.7 mph N/A   Clear
5:35 PM 44.6 °F 39.7 °F 10.4 °F 25% 29.99 in 10.0 mi West 9.2 mph - N/A   Clear
5:55 PM 42.8 °F 35.8 °F 12.2 °F 29% 30.00 in 10.0 mi West 13.8 mph - N/A   Clear
6:15 PM 41.0 °F 35.2 °F 14.0 °F 33% 30.00 in 10.0 mi West 9.2 mph - N/A   Clear
6:35 PM 41.0 °F 36.4 °F 15.8 °F 36% 30.00 in 10.0 mi West 6.9 mph - N/A   Clear
6:55 PM 39.2 °F 34.2 °F 15.8 °F 39% 30.01 in 10.0 mi West 6.9 mph - N/A   Clear
7:15 PM 37.4 °F 32.1 °F 14.0 °F 38% 30.02 in 10.0 mi WSW 6.9 mph - N/A   Clear
7:35 PM 37.4 °F 32.1 °F 14.0 °F 38% 30.02 in 10.0 mi WSW 6.9 mph - N/A   Clear
7:55 PM 37.4 °F 32.1 °F 14.0 °F 38% 30.03 in 10.0 mi WSW 6.9 mph - N/A   Clear
8:15 PM 37.4 °F 32.1 °F 15.8 °F 41% 30.03 in 10.0 mi WSW 6.9 mph - N/A   Clear
8:35 PM 37.4 °F 32.8 °F 15.8 °F 41% 30.03 in 10.0 mi WSW 5.8 mph - N/A   Clear
8:55 PM 37.4 °F 33.8 °F 15.8 °F 41% 30.03 in 10.0 mi WSW 4.6 mph - N/A   Clear
9:15 PM 35.6 °F 30.7 °F 17.6 °F 48% 30.04 in 10.0 mi WSW 5.8 mph - N/A   Clear
9:35 PM 35.6 °F 31.7 °F 17.6 °F 48% 30.04 in 10.0 mi WSW 4.6 mph - N/A   Clear
9:55 PM 35.6 °F 31.7 °F 17.6 °F 48% 30.04 in 10.0 mi WSW 4.6 mph - N/A   Clear
10:15 PM 35.6 °F 29.9 °F 17.6 °F 48% 30.04 in 10.0 mi WSW 6.9 mph - N/A   Clear
10:35 PM 33.8 °F 27.7 °F 17.6 °F 52% 30.04 in 10.0 mi West 6.9 mph - N/A   Clear
10:55 PM 35.6 °F 29.9 °F 17.6 °F 48% 30.04 in 10.0 mi WSW 6.9 mph - N/A   Clear
11:15 PM 33.8 °F 28.6 °F 15.8 °F 48% 30.04 in 10.0 mi West 5.8 mph - N/A   Clear
11:35 PM 35.6 °F 31.7 °F 14.0 °F 41% 30.04 in 10.0 mi West 4.6 mph - N/A   Clear
11:55 PM 33.8 °F 30.8 °F 15.8 °F 48% 30.05 in 10.0 mi West 3.5 mph - N/A   Clear